map of APF home
APF - Airport
Location
City:  Naples, Florida, United States
Name:Naples Municipal Airport
ICAO:KAPF
IATA:APF
FAA LID:APF

Details
Type:Airport (Part 139 Class I)
Use:Public/Civil
Latitude:2609'09"N (26.152442)
Longitude:8146'32"W (-81.775638)
Datum:WGS 1984
Elevation:8 ft (2 m)
Variation:5.84W (WMM2015v2 magnetic declination)
-0.08 annual change
Runways:3
Longest:6600 × 150 ft (2012 × 45.5 m), paved

Time
Time Zone:UTC-5 (DST-4)
Local Time:

Weather
METAR:KAPF 041353Z 03005KT 10SM SCT011 21/18 A3006 RMK AO2 SLP176 T02060183
TAF:KAPF 041123Z 0412/0512 VRB05KT P6SM SCT005 BKN035
TEMPO 0412/0414 SCT005 BKN015
FM041800 28008KT P6SM SCT020 BKN250
FM050000 VRB02KT P6SM FEW020 SCT250

Related Locations
Nearby:
Farthest:USL: 11505 mi / 18515 km
Useless Loop, WA, AU

Find:

   beyond  
but within

Other Information
Maps:
Delays:
NOTAMs:
Links:
Sources:

  
  • flag of United States
  • flag of Florida
  

Airport Diagram

Airport diagram for APF

Airport diagram PDF from FAA

Sectional Chart

Flight Planning
at skyvector.com

Satellite Image

Google Maps Satellite view

 

Copyright © 2004-2019 Karl L. Swartz. All rights reserved.
The Great Circle Mapper name and logo are trademarks of the Great Circle Mapper.
All other trademarks mentioned herein belong to their respective owners.
Please see credits for attibutions and further copyright information.

  Follow gcmap on Facebook Follow gcmap on Twitter GCmap on LinkedIn

hCard Microformat

Geo Microformat